Timeline UpdatesTrip UpdatesNews PostsPvt PostsTravel TipsAdmin PostsConv PostsFollowed PostsChat RequestsBlog PostsPNR Posts

Disclaimer
Search
 
 
Sun Sep 21, 2014 15:39:13 ISTHomeTrainsΣChainsAtlasPNRForumGalleryNewsFAQTripsMembersLoginFeedback
No Recent News for this Train
Other Trains in the News **new
Latest...
.
Sat Feb 02, 2013 (04:10PM)
⇐ Return Journey: Train# 51187

51188/Katni - Bhusaval Passenger (UnReserved)

Time-Table HAS CHANGED.
Sep 05 (2:13PM)
Change Departure Station:
Change Arrival Station:
Post a Train Travel TipPost a Train Travel Tip **new
Post a Comment/Question/Picture/VideoPost a Comment/Question/Picture/Video
Pantry/Catering
✕ NO Pantry Car
✕ NO Catering
RSA - Rake Sharing
Rake/Coach Composition
Loco
KTE-ET: KTE/ET WDM-3A ET-BSL: BSL/ET WAP-4
News    PNR    Forum    Time-Table    Availability    Fare Chart    Map    Arr/Dep History    Trips    Gallery    ΣChains    X/O    Timeline    
Travel Time: 7h 0m    23 halts    Distance: 199 km    Avg Speed: 28 km/hr
Type: Passenger
Zone: CR/Central
Departs @ 10:00
Platform# 1
SMTWTFS
Khirkiya/KKN 
Arrives @ 17:00
Platform# 6
SMTWTFS
Bhusaval Junction/BSL 

23 halts. 24 intermediate Stations between Khirkiya and Bhusaval Junction

Show ALL intermediate Stations  Show Old Time-Table

#CodeStation NameX/OArrivesAvgDepartsAvgHaltPFDay#KmSpeedElevZoneAddress
1KTEKatni Junction (6)  -22:20-51-443.232387mWCRKatni, Madhya Pradesh
2MDRRMadhavnagar Road (2)  22:30-22:31-1m--1-437.947398mWCRMadhavnagar, Madhya Pradesh
3NWRNiwar (2)X  22:41-22:42-1m--1-430.052412mWCRPipraundh, Madhya Pradesh
4SNRRSansarpur (2)X  22:51-22:52-1m--1-422.259436mWCRNational Highway 7, Madhya Pradesh
5SBDSleemanabad Road (2)  22:59-23:00-1m--1-415.357434mWCRSleemanabad, Madhya Pradesh
6DDCEDundi (2)  23:10-23:11-1m--1-405.860415mWCRDundi, Madhya Pradesh
7SHRSihora Road (2)X  23:26-23:28-2m--1-390.961388mWCRJabalpur, Madhya Pradesh
8GSPRGosalpur (2)X  23:39-23:40-1m--1-379.857396mWCRJabalpur, Madhya Pradesh
9DOEDeori (2)  23:51-23:52-1m--1-369.348392mWCRJabalpur, Madhya Pradesh
10ADTLAdhartal (2)  00:03-00:04-1m--2-360.582393mWCRJabalpur, Madhya Pradesh
11JBPJabalpur Junction (4)X  00:20 00:10-00:30 00:20-10m12-352.314416mWCRJabalpur, Madhya Pradesh
12MMLMadan Mahal (3)  00:34-00:36-2m12-349.056428mWCRJabalpur, Madhya Pradesh
13BRGTBheraghat (2)  00:50-00:51-1m--2-335.952389mWCRBheraghat, Madhya Pradesh
14BHTNBhitoni (2)X  01:04 01:06-01:05 01:08-1 2m--2-322.769377mWCRJabalpur, Madhya Pradesh
15BMRBikrampur (2)  01:17 01:18-01:18 01:20-1 2m--2-311.259353mWCRBikrampur Dist Narsingpur., Madhya Pradesh
16SRIDShridham (3)X  01:29 01:32-01:31 01:34-2m32-299.466373mWCRShridham, Madhya Pradesh
17KKBKarak Bel (2)O  01:48-01:49-1m--2-284.029375mWCRKarak Bel, Madhya Pradesh
18BELDBelkhera (2)  01:58-01:59-1m--2-279.633367mWCRState Highway 22, Madhya Pradesh
19GPCGhatpindrai (2)  02:09-02:10-1m--2-274.135366mWCRGhatpindra, Madhya Pradesh
20NUNarsinghpur (2)X  02:20-02:22-2m22-268.368365mWCRNarsimhapur, Madhya Pradesh
21KYKareli (2)X  02:36-02:37-1m22-252.447361mWCRKareli, Madhya Pradesh
22KFYKarapgaon (2)X  02:48-02:49-1m--2-243.847363mWCRNational Highway 26, Madhya Pradesh
23BNEBohani (2)XO  02:58-02:59-1m--2-236.978361mWCRNarsinghpur, Madhya Pradesh
24GARGadarwara (2)XO  03:09-03:10-1m22-223.956352mWCRNarsinghpur, Madhya Pradesh
25SCKRSalichauka Road (2)X  03:25-03:26-1m--2-210.061355mWCRGadarwara, Madhya Pradesh
26JHTJunehta (2)  03:36-03:37-1m--2-199.951353mWCRState Highway 22, Madhya Pradesh
27BKHBankhedi (2)X  03:44-03:46-2m--2-194.069351mWCRBankheri, Madhya Pradesh
28PPIPipariya (3)X  04:03-04:05-2m32-174.640338mWCRPiparia, Madhya Pradesh
29SXFSobhapur (2)X  04:18-04:19-1m--2-165.945338mWCRState Highway 22, Madhya Pradesh
30SGPSohagpur (2)X  04:31-04:33-2m--2-156.943340mWCRSohagpur, Madhya Pradesh
31GMDGuramkhedi (2)  04:47-04:48-1m--2-146.849337mWCRGuramkhedi, Madhya Pradesh
32BGTABagratawa (2)  05:04-05:05-1m--2-133.829338mWCRBagra Tawa, Madhya Pradesh
33SQLSontalai (2)X  05:19-05:20-1m--2-126.927329mWCRItarsi, Madhya Pradesh
34GROGurra (2)X  05:40-05:41-1m--2-117.916327mWCRItarsi, Madhya Pradesh
35ETItarsi Junction (7)  06:20-06:45-25m--2-107.357329mWCRItarsi 461111, Madhya Pradesh
36DRADularia (2)  06:58-06:59-1m--2-95.142318mWCRItarsi, Madhya Pradesh
37KTZKhutwansa (2)X  07:07-07:08-1m--2-89.555325mWCRSH 15, Madhya Pradesh
38DKIDharamkundi (2)O  07:17 07:16-07:18-1 2m--2-82.131314mWCRSH 15, Madhya Pradesh
39BPFBanapura (2)  07:34-07:35-1m--2-73.949314mWCRBanapura, Madhya Pradesh
40BIFBhaironpur (2)O  07:44-07:45-1m--2-66.649322mWCRSH 15, Madhya Pradesh
41PGLPagdhal (2)X  07:54-07:55-1m--2-59.341317mWCRPagdhal, Madhya Pradesh
42CGOChhidgaon (2)X  08:01-08:02-1m--2-55.126309mWCRHarda, Madhya Pradesh
43TBNTimarni (2)  08:24-08:25-1m--2-45.647308mWCRTimarni, Madhya Pradesh
44CRKCharkhera (2)XO  08:34-08:35-1m--2-38.623298mWCRBarkalan, Madhya Pradesh
45HDHarda (3)X  08:53-08:55-2m--2-31.574289mWCRHarda, Madhya Pradesh
46PALPalasner (2)  09:02 09:01-09:03-1 2m--2-24.144296mWCRHarda, Madhya Pradesh
47MUOMasangaon (2)XO  09:12 09:11-09:13-1 2m--2-18.212303mWCRSH 15, Madhya Pradesh
48BRIBhiringi (2)  09:39 09:38-09:40-1 2m--2-13.0133294mWCRSH 15, Madhya Pradesh
49KROKurawan (2)X  09:44 09:43-09:45-1 2m--2-6.429297mWCRSH 15, Madhya Pradesh
50KKNKhirkiya (2)»O  09:58-10:00-2m120.041281mWCRSH 15, Madhya Pradesh
51DRHIDagarhkeri (2)XO  10:17 10:16-10:18-1 2m--210.921274mWCRState Highway 15, Madhya Pradesh
52BRUDBarud (2)X  10:47 10:46-10:48-1 2m--220.576273mWCRKhandwa, Madhya Pradesh
53CAERChhanera (2)XO  10:56-10:58-2m--230.723283mWCRChhanera, Madhya Pradesh
54CKKDCharkheda Khurd (2)  11:17 11:16-11:18-1 2m--237.524274mWCRKhandwa, Madhya Pradesh
55SGBJSurgaon Banjari (2)  11:47 11:46-11:48-1 2m--248.671298mWCRKhandwa, Madhya Pradesh
56TLVTalvadiya (2)  11:58-12:00-2m--260.463308mWCRKhandwa, Madhya Pradesh
57MTAMathela (2)XO  12:09 12:08-12:10-1 2m--268.76322mWCRKhandwa, Madhya Pradesh
58KNWKhandwa Junction (5)  13:20-13:30-10m--276.144310mCRKhandwa, Madhya Pradesh
59BRGJBargaon Gujar (2)  13:37-13:38-1m--281.260316mCRKhandwa, Madhya Pradesh
60BMABagmar (2)X  13:44-13:45-1m--287.266335mCRState Highway 27, Madhya Pradesh
61KDKKohdad (2)X  13:49-13:50-1m--291.657344mCRState Highway 15, Madhya Pradesh
62DGNDongargaon (2)  13:58-13:59-1m1299.258373mCRBorgaon, Madhya Pradesh
63SXASagphata (2)  14:07-14:08-1m--2106.951350mCRKhandwa, Madhya Pradesh
64MWAMandwa (2)X  14:15-14:16-1m--2112.944317mCRState Highway 27, Madhya Pradesh
65NPNRNepanagar (2)  14:24-14:26-2m--2118.753289mCRState Highway 27, Madhya Pradesh
66CDIChandni (2)X  14:34-14:35-1m--2125.877276mCRNepanagar Rd, Madhya Pradesh
67AGQAsirgarh Road (2)  14:43-14:44-1m--2136.067259mCRState Highway 27, Madhya Pradesh
68BAUBurhanpur (2)X  14:52-14:55-3m12145.062269mCRBurhanpur, Madhya Pradesh
69WGAWaghodaX  15:05-15:06-1m--2155.260259mCRChorwad, Maharashtra
70RVRaver (2)X  15:16-15:18-2m--2165.268242mCRJalgaon, Maharashtra
71NBNimbhora (2)X  15:27-15:28-1m--2175.358229mCRJalgaon, Maharashtra
72SAVSavda (2)  15:37-15:38-1m--2184.058220mCRSavda, Maharashtra
73DSKDuskheda (2)X  15:47-15:48-1m--2192.76213mCRDuskheda Station, Maharashtra
74BSLBhusaval Junction (8)•  17:00--62199.5-208mCRBhusaval 425201, Maharashtra
Scroll to Top
Scroll to Bottom